Weather observations for the past three days for
John F Kennedy Memorial Airport
Imperial (Metric)
Date Time (cdt) Wind (mph) Vis. (mi.) Weather Sky Cond. Temperature (ºF) Relative Humidity Wind Chill (°F) Heat Index (°F) Pressure Precipitation (in)
Air Dwpt 6 hour altimeter (in) sea level (mb) 1 hr 3 hr 6 hr
Max. Min.
16 03:53 W 6 10.00 Fair CLR 60.1 57.9 93% 29.78 1008.3
16 02:53 W 6 9.00 Fair CLR 57.9 57 97% 29.79 1008.6
16 01:53 W 5 6.00 Fog/Mist CLR 59 57.9 96% 29.79 1008.7
16 00:53 W 6 9.00 Fair CLR 61 59 69.1 60.1 93% 29.78 1008.3
15 23:53 W 5 7.00 Mostly Cloudy BKN070 62.1 60.1 93% 29.77 1007.9
15 22:53 Calm 8.00 A Few Clouds FEW048 60.1 59 96% 29.78 1008.1
15 21:53 W 3 9.00 A Few Clouds FEW070 61 60.1 97% 29.78 1008.1
15 20:53 Calm 10.00 Fair CLR 64 62.1 93% 29.74 1007.2
15 19:53 E 6 10.00 Mostly Cloudy BKN070 68 63 84% 29.72 1006.3
15 18:53 E 8 10.00 Mostly Cloudy FEW042 BKN050 BKN060 69.1 64 86 69.1 84% 29.72 1006.3 0.46
15 17:53 NE 8 10.00 Overcast FEW015 BKN022 OVC027 70 66 87% 29.73 1006.5 0.34
15 16:53 N 9 7.00 Thunderstorm in Vicinity Light Rain BKN039 OVC048 73 68 84% 29.7 1005.5 0.01
15 15:53 W 10 10.00 Mostly Cloudy BKN060 BKN110 82.9 66 57% 85 29.67 1004.6 0.11
15 14:53 W 13 10.00 A Few Clouds FEW055 84 64.9 53% 86 29.67 1004.5
15 13:53 NW 7 9.00 Light Rain SCT042 BKN055 OVC070 77 73 88% 78 29.69 1005.1 0.11
15 12:53 SW 10 10.00 Mostly Cloudy FEW043 BKN065 BKN080 82.9 66.9 84.9 63 59% 86 29.71 1005.6
15 11:53 S 8 10.00 A Few Clouds FEW055 82.9 66 57% 85 29.74 1006.8
15 10:53 Vrbl 5 10.00 Fair CLR 79 64 60% 81 29.77 1007.8
15 09:53 Vrbl 3 10.00 Fair CLR 72 63 73% 29.79 1008.5
15 08:53 SW 3 10.00 Fair CLR 68 64 87% 29.8 1008.9
15 07:53 W 5 10.00 Fair CLR 66 63 90% 29.83 1009.8
15 06:53 Calm 9.00 Fair CLR 63 61 63 55 93% 29.82 1009.4
15 05:53 Calm 5.00 Fog/Mist CLR 57 55.9 96% 29.81 1009.3
15 04:53 SE 5 1.25 Fog/Mist CLR 55.9 54 93% 29.8 1009.0
15 03:53 SW 5 10.00 Fair CLR 60.1 59 96% 29.84 1010.1
15 02:53 SW 5 10.00 Fair CLR 60.1 59 96% 29.85 1010.3
15 01:53 W 3 10.00 Fair CLR 62.1 60.1 93% 29.85 1010.4
15 00:53 S 3 10.00 Fair CLR 60.1 59 84.9 60.1 96% 29.86 1010.9
14 23:53 S 3 10.00 Fair CLR 61 60.1 97% 29.85 1010.7
14 22:53 Calm 10.00 Fair CLR 66 63 90% 29.85 1010.3
14 21:53 Calm 10.00 Fair CLR 66 63 90% 29.85 1010.5
14 20:53 NW 3 10.00 Fair CLR 75 64 69% 77 29.84 1010.0
14 19:53 NW 6 10.00 Fair CLR 82 64 55% 84 29.84 1010.0
14 18:53 NW 9 10.00 Fair CLR 84.9 63 90 84 48% 86 29.84 1010.0
14 17:53 W 10 10.00 Fair CLR 87.1 64 46% 88 29.83 1009.7
14 16:53 W 13 10.00 A Few Clouds FEW060 88 64.9 46% 90 29.82 1009.5
14 15:53 NW 8 10.00 Fair CLR 88 66.9 50% 91 29.82 1009.3
14 14:53 NW 8 10.00 Partly Cloudy SCT050 89.1 68 50% 93 29.82 1009.3
14 13:53 W 7 10.00 A Few Clouds FEW040 FEW050 87.1 71.1 59% 93 29.82 1009.4
14 12:53 SW 9 10.00 Fair CLR 86 72 86 69.1 63% 92 29.83 1009.7
14 11:53 W 12 G 18 10.00 A Few Clouds FEW031 84 71.1 65% 89 29.85 1010.2
14 10:53 W 9 10.00 Partly Cloudy FEW026 SCT060 82.9 71.1 67% 88 29.85 1010.5
14 09:53 SW 10 10.00 Fair CLR 80.1 69.1 69% 83 29.86 1010.9
14 08:53 SW 8 10.00 Fair CLR 78.1 69.1 74% 80 29.86 1010.8
14 07:53 S 7 10.00 Fair CLR 73.9 69.1 85% 29.86 1010.6
14 06:53 S 3 6.00 Fog/Mist CLR 69.1 66.9 72 64 93% 29.84 1010.1
14 05:53 Calm 3.00 Fog/Mist CLR 66 64.9 96% 29.84 1010.1
14 04:53 S 3 10.00 Fair CLR 68 66 93% 29.84 1010.3
14 03:53 SW 7 10.00 Partly Cloudy SCT085 70 68 93% 29.85 1010.4
14 02:53 Vrbl 5 10.00 Fair CLR 70 68 93% 29.84 1010.1
14 01:53 S 6 10.00 Fair CLR 71.1 69.1 94% 29.85 1010.6
14 00:53 S 3 10.00 Fair CLR 72 70 82 71.1 94% 29.89 1011.9
13 23:53 S 5 10.00 Fair CLR 73 71.1 94% 29.92 1012.9
13 22:53 S 5 10.00 Fair CLR 73.9 71.1 91% 29.92 1012.6
13 21:53 SW 5 7.00 Fair CLR 72 70 94% 29.93 1013.2
13 20:53 Calm 10.00 A Few Clouds FEW035 75.9 71.1 85% 76 29.91 1012.4
13 19:53 S 5 10.00 Partly Cloudy FEW030 SCT037 80.1 72 76% 84 29.91 1012.4
13 18:53 SW 14 10.00 A Few Clouds FEW036 82 71.1 82.9 73 69% 86 29.9 1012.3
13 17:53 S 10 G 18 10.00 Fair CLR 82 70 67% 86 29.9 1012.2
13 16:53 S 14 10.00 Fair CLR 82 68 63% 85 29.94 1013.6
13 15:53 S 13 G 20 10.00 Fair CLR 82 68 63% 85 29.98 1014.8
13 14:53 SW 7 10.00 Overcast SCT055 BKN070 OVC110 75 66.9 76% 76 29.99 1015.3
13 13:53 S 8 10.00 A Few Clouds FEW110 77 64 64% 79 29.97 1014.7
13 12:53 S 8 10.00 Fair CLR 78.1 66.9 82.9 69.1 69% 80 29.98 1015.1
13 11:53 SW 15 G 24 10.00 A Few Clouds FEW029 FEW085 81 70 69% 84 30 1015.5
13 10:53 S 7 10.00 Mostly Cloudy FEW032 BKN100 81 70 69% 84 30.02 1016.2
13 09:53 S 10 10.00 Fair CLR 80.1 69.1 69% 83 30.02 1016.2
13 08:53 Calm 10.00 Fair CLR 77 66.9 71% 79 30.04 1017.0
13 07:53 S 3 10.00 Fair CLR 73 66 79% 30.06 1017.7
13 05:53 S 3 10.00 Fair CLR 63 61 93% 30.05 1017.2
13 04:53 SW 6 10.00 Fair CLR 64.9 62.1 90% 30.05 1017.3
Date Time (cdt) Wind (mph) Vis. (mi.) Weather Sky Cond. Air Dwpt Max. Min. Relative Humidity Wind Chill (°F) Heat Index (°F) altimeter (in) sea level (mb) 1 hr 3 hr 6 hr
6 hour
Temperature (ºF) Pressure Precipitation (in)